User: anonymous
Location: Unspecified
(0.0000°N, 0.0000°E)
Time: 16:32:20
(UTC+02:00)
Language:

Cosmos 1538 Rocket - Orbit

View from above orbital plane
View from above orbital plane
View from above satellite
View from above satellite

Ground track
Ground track

The orbit data is extracted from the following two-line orbital elements,

1 14760U 84019B   14109.21961347  .00000514  00000-0  18698-3 0  2929
2 14760 074.0443 080.1131 0028861 225.5857 231.4695 14.35468804577838
Epoch (UTC): 19 April 2014 05:16:14
Eccentricity: 0.0028861
inclination: 74.0443°
perigee height: 753 km
apogee height: 794 km
right ascension of ascending node: 80.1131°
argument of perigee: 225.5857°
revolutions per day: 14.35468804
mean anomaly at epoch: 231.4695°
orbit number at epoch: 57783

The dashed part of the orbit path shows where the satellite is in the earth's shadow,  

DLR